OpenBCM V1.13 (Linux)

Packet Radio Mailbox

DB0FHN

[JN59NK Nuernberg]

 Login: GUEST





  
I6KZR  > KEPLER   21.01.03 22:12l 317 Lines 15749 Bytes #999 (0) @ WW
BID : 19733_IK6WID
Read: DB0FHN GUEST
Subj: 2L Keplerian Elements #021
Path: DB0FHN<DB0RGB<OK0PPL<RZ6HXA<SP7MGD<IK6PYS<IK6ZDE<I6ZLO<IK6WID
Sent: 030121/2057Z @:IK6WID.#AP.IMAR.ITA.EU #:19733 [MONTE URANO]  FBB7.00i
From: I6KZR@IK6WID.#AP.IMAR.ITA.EU
To  : KEPLER@WW


OSCAR 7
1 07530U 74089B   03019.12574091 -.00000029  00000-0  10000-3 0  1432
2 07530 101.7685  67.1930 0012560 137.3044 222.9006 12.53563662289376
GOES 2
1 10061U 77048A   03019.51073537  .00000052  00000-0  00000+0 0   614
2 10061  14.1247  13.6744 0013638 197.1605 162.8376  0.99393429 38534
GOES 3
1 10953U 78062A   03020.01805056 -.00000088  00000-0  00000+0 0  8963
2 10953  13.3963  17.4581 0004617 337.6061  22.4254  1.00278309 43203
GOES 6
1 14050U 83041A   03016.14732176  .00000067  00000-0  10000-3 0  4146
2 14050  10.3570  35.6987 0003031 351.7582   8.3301  1.00292235130300
OSCAR 10
1 14129U 83058B   03013.46521539 -.00000313  00000-0  10000-3 0  9119
2 14129  25.8708 170.2888 6042226 318.8494   8.5240  2.05869613119327
OSCAR 11 (UoSAT 2)
1 14781U 84021B   03020.56705089  .00002255  00000-0  32041-3 0   494
2 14781  98.1133 354.2780 0008815 311.4589  48.5859 14.77909745 11958
NOAA 10
1 16969U 86073A   03021.15218541  .00000263  00000-0  12609-3 0  6346
2 16969  98.7261  15.3255 0012554 166.0301 194.1229 14.27053164849856
GOES 7
1 17561U 87022A   03013.52827387  .00000116  00000-0  10000-3 0  8102
2 17561   7.5470  55.7264 0004064 288.6625 149.4031  1.00317770 41389
COSMOS 1861
1 18129U 87054A   03019.04264408  .00000091  00000-0  83344-4 0  1938
2 18129  82.9246 169.1255 0011127 319.2729  40.7590 13.72697821780329
EUTELSAT 1-F4 (ECS 4)
1 18351U 87078B   03016.60000000 -.00000134  00000-0  00000+0 0   285
2 18351   7.0610  58.7710 0010065 125.6900 263.2870  0.98688648 42356
NOAA 11
1 19531U 88089A   03021.14729122  .00000256  00000-0  15695-3 0  4724
2 19531  98.9052 102.6188 0010928 284.3250  75.6709 14.14524036738781
ASTRA 1A
1 19688U 88109B   03017.81495582  .00000049  00000-0  10000-3 0  5589
2 19688   1.3145  95.0963 0003992 194.8757 125.4504  1.00274781 31874
OSCAR 14 (UOSAT 3)
1 20437U 90005B   03021.11520437  .00000233  00000-0  10365-3 0  1469
2 20437  98.2775  66.0828 0010093 290.3852  69.6241 14.31228500678429
OSCAR 15 (UOSAT 4)
1 20438U 90005C   03017.75600280  .00000160  00000-0  77388-4 0  7633
2 20438  98.2521  52.1455 0009416 313.1617  46.8776 14.30188817677616
OSCAR 16 (PACSAT)
1 20439U 90005D   03020.57557174  .00000246  00000-0  10839-3 0  8409
2 20439  98.3232  77.0823 0010354 298.4678  61.5467 14.31460272678382
OSCAR 17 (DOVE)
1 20440U 90005E   03020.22068365  .00000292  00000-0  12515-3 0  7214
2 20440  98.3416  80.5671 0010757 299.5483  60.4623 14.31737075678404
OSCAR 18 (WEBERSAT)
1 20441U 90005F   03020.55803274  .00000253  00000-0  11087-3 0  9927
2 20441  98.3398  80.1209 0011051 298.4837  61.5236 14.31542073678433
OSCAR 19 (LUSAT)
1 20442U 90005G   03021.16873997  .00000272  00000-0  11758-3 0  9448
2 20442  98.3534  83.6806 0011436 295.8545  64.1453 14.31705260678575
JAS 1B (FUJI 2)
1 20480U 90013C   03018.90847156 -.00000008  00000-0  46908-4 0  4567
2 20480  99.0409 347.4266 0540895  73.3079 292.6655 12.83328294606581
HST
1 20580U 90037B   03019.84213198  .00002166  00000-0  16711-3 0  3025
2 20580  28.4649 231.1729 0003896 315.2574 160.1443 14.97694237498178
EUTELSAT 2-F1
1 20777U 90079B   03020.96616112 -.00000094  00000-0  10000-3 0   185
2 20777   3.4336  84.8234 0000586 213.7896 245.1756  1.00271346 25818
FENGYUN 1B
1 20788U 90081A   03020.91881885  .00000017  00000-0  40041-4 0  8626
2 20788  99.0245   3.3861 0015254 311.2323  48.7527 14.02140102633526
EUTELSAT 2-F2
1 21056U 91003B   03018.98974700  .00000129  00000-0  10000-3 0  6110
2 21056   2.6576  88.1748 0002556 220.7869 213.8256  1.00277988 31575
INFORMATOR 1
1 21087U 91006A   03019.43093742  .00000099  00000-0  88369-4 0  5924
2 21087  82.9414 339.7215 0035443 337.3213  22.6374 13.74923211600743
COSMOS 2123
1 21089U 91007A   03020.56639926  .00000093  00000-0  82249-4 0  4848
2 21089  82.9210 202.8911 0030264   9.7212 350.4519 13.74401217599801
ASTRA 1B
1 21139U 91015A   03013.00000000  .00000139  00000-0  10000-3 0  1572
2 21139   0.0122 319.8851 0002995  65.1991 106.1713  1.00273184 31823
METEOSAT 5 (MOP 2)
1 21140U 91015B   03020.67359383  .00000025  00000-0  10000-3 0  6823
2 21140   5.5634  70.1411 0000806 218.9189 135.9922  1.00267750 45759
NOAA 12
1 21263U 91032A   03021.11811570  .00000480  00000-0  22303-3 0  9387
2 21263  98.6231  11.2330 0013625 102.5886 257.6817 14.25061479607167
OSCAR 22 (UoSAT 5)
1 21575U 91050B   03020.23722011  .00000500  00000-0  17476-3 0  7056
2 21575  98.1375  13.8434 0006700 216.4542 143.6190 14.39133941604063
METEOR 3-5
1 21655U 91056A   03018.22201542  .00000051  00000-0  10000-3 0  4928
2 21655  82.5559  61.0167 0012467 279.0573  80.9139 13.16978634549353
UARS
1 21701U 91063B   03020.42739370  .00001341  00000-0  11828-3 0  8047
2 21701  56.9790 149.9943 0005947 117.2526 242.9059 15.02796911621334
EUTELSAT 2-F3
1 21803U 91083A   03018.86505557  .00000139  00000-0  10000-3 0  5104
2 21803   2.5220  89.4889 0002831 229.7037 131.6203  1.00278675 36693
INMARSAT 2-F3
1 21814U 91084B   03020.14726326  .00000119  00000-0  10000-3 0  6031
2 21814   1.6866  56.9816 0002466 249.6518  83.4852  1.00275467 40593
INMARSAT 2-F4
1 21940U 92021B   03020.34919135 -.00000345  00000-0  10000-3 0  5656
2 21940   2.3833  17.7541 0002167 249.3231  86.9060  1.00267500 39385
EUTELSAT 2-F4
1 22028U 92041B   03020.89447325 -.00000094  00000-0  10000-3 0  3191
2 22028   1.6475  92.9714 0006128 211.7183 124.8572  1.00272371 31489
OSCAR 23 (KITSAT 1)
1 22077U 92052B   03019.16986830 -.00000037  00000-0  10000-3 0  1481
2 22077  66.0835 189.3884 0014939 280.7036  79.2301 12.86407797490399
ASTRA 1C
1 22653U 93031A   03013.00000000  .00000139  00000-0  10000-3 0  7839
2 22653   0.0122 319.8851 0002995  65.1991 106.1253  1.00273184 30520
METEOR 2-21
1 22782U 93055A   03021.11307091  .00000117  00000-0  92630-4 0  4977
2 22782  82.5456 237.4652 0023708  66.8040 293.5614 13.83530383474154
KITSAT B
1 22825U 93061C   03020.20312994  .00000231  00000-0  10751-3 0  4665
2 22825  98.2778  51.3938 0008651 353.3048   6.8017 14.28932512485687
POSAT 1
1 22826U 93061D   03020.65804469  .00000246  00000-0  11316-3 0  2974
2 22826  98.2781  52.9264 0009349 350.2725   9.8266 14.29154769485796
ITAMSAT
1 22828U 93061F   03020.64528600  .00000223  00000-0  10349-3 0  4067
2 22828  98.2745  53.1791 0010049 329.3271  30.7323 14.29498529453997
EYESAT A
1 22829U 93061G   03020.65968371  .00000332  00000-0  14536-3 0  4302
2 22829  98.2766  53.7833 0009785 329.8753  30.1855 14.29753354485921
METEOSAT 6
1 22912U 93073B   03018.87520258  .00000071  00000-0  00000+0 0  6429
2 22912   2.6056  82.5669 0000870 251.1131 108.5338  1.00273361 31984
GOES 8
1 23051U 94022A   03021.37144942 -.00000240  00000-0  00000+0 0  5709
2 23051   0.2308 105.6780 0002388 196.5117 236.1092  1.00257460 39521
ASTRA 1D
1 23331U 94070A   03020.80568506  .00000146  00000-0  00000+0 0  8040
2 23331   0.0442 212.5164 0002193  99.2253 122.2449  1.00274550 30584
RADIO ROSTO
1 23439U 94085A   03018.16267362 -.00000042  00000-0  24293-4 0  6765
2 23439  64.8160  92.2698 0147649 121.3252 240.2220 11.27547996332057
NOAA 14
1 23455U 94089A   03021.15581167  .00000266  00000-0  16706-3 0  4935
2 23455  99.1878  38.9753 0008848 312.7754  47.2673 14.13287045415469
HIMAWARI 5 (GMS 5)
1 23522U 95011B   03020.60259907 -.00000275  00000-0  00000+0 0   639
2 23522   1.6826  83.1325 0000700  96.4732 297.0550  1.00267633 28601
HOT BIRD 1
1 23537U 95016B   03013.80550721  .00000107  00000-0  10000-3 0  5332
2 23537   0.0070 236.2796 0008090  86.9786  92.5958  1.00275871 28611
GOES 9
1 23581U 95025A   03017.41178810  .00000106  00000-0  00000+0 0  4778
2 23581   0.3599 278.0713 0007570 223.9498 351.8607  1.00034711 28042
INMARSAT 3-F1
1 23839U 96020A   03020.67379406  .00000023  00000-0  00000+0 0  8521
2 23839   0.0480  12.8552 0006235 303.9251 109.3050  1.00274695 24920
ASTRA 1F
1 23842U 96021A   03013.00000000  .00000139  00000-0  10000-3 0  5560
2 23842   0.0122 319.8851 0002995  65.1991 106.1837  1.00273184 24757
JAS 2
1 24278U 96046B   03019.81089575  .00000023  00000-0  62596-4 0  5548
2 24278  98.5268 175.0743 0350323 293.7649  62.7102 13.52869731317280
UNAMSAT
1 24305U 96052B   03017.21531561  .00000205  00000-0  20364-3 0  6555
2 24305  82.9363 286.7112 0029094 295.9635  63.8513 13.73447196319045
INMARSAT 3-F2
1 24307U 96053A   03017.17607640 -.00000107  00000-0  00000+0 0   721
2 24307   0.0559  16.1481 0005610 281.6129 226.2895  1.00271515 23291
HOT BIRD 2
1 24665U 96067A   03013.80550721  .00000107  00000-0  10000-3 0  3396
2 24665   0.0284 278.7326 0008090  44.5257  92.5403  1.00273403 22904
INMARSAT 3-F3
1 24674U 96070A   03018.59420071  .00000052  00000-0  10000-3 0  9727
2 24674   0.0561 312.3184 0004420 345.4033 211.8585  1.00270771 22279
GOES 10
1 24786U 97019A   03020.39430854  .00000094  00000-0  00000+0 0  5116
2 24786   0.0677 109.8719 0003244 211.0591 165.3792  1.00282203 21044
INMARSAT 3-F4
1 24819U 97027A   03017.04658566 -.00000269  00000-0  10000-3 0  8665
2 24819   0.0607 298.2415 0003813 357.5140 143.0893  1.00273348 20682
FENGYUN 2A
1 24834U 97029A   03008.98957809 -.00000188  00000-0  00000+0 0  9429
2 24834   2.4721  88.7751 0002867 256.9049 204.9633  1.00265824 20437
HOT BIRD 3
1 24931U 97049A   03013.80550721  .00000107  00000-0  10000-3 0  4204
2 24931   0.0673 233.2523 0010443 100.7649  81.7511  1.00274844 19728
METEOSAT 7
1 24932U 97049B   03020.88454287  .00000003  00000-0  00000+0 0  2322
2 24932   0.1571  51.1548 0001134 222.7308 164.3754  1.00274941 19731
ASTRA 1G
1 25071U 97076A   03013.00000000  .00000139  00000-0  10000-3 0  3879
2 25071   0.0122 319.8851 0002995  65.1991 106.1633  1.00273184 18772
